Weather History for Lexington, NC

Change the Weather History Date:

Saturday, April 19, 2014

  Actual Average (KINT) Record (KINT)
Temperature  
Mean Temperature 50 °F -  
Max Temperature 57 °F 68 °F 89 °F (1976)
Min Temperature 44 °F 48 °F 24 °F (1983)
Degree Days  
Heating Degree Days 14    
Moisture  
Dew Point 47 °F    
Average Humidity 92    
Maximum Humidity 100    
Minimum Humidity 55    
Precipitation  
Precipitation 0.61 in - - ()
Sea Level Pressure  
Sea Level Pressure 30.17 in    
Wind  
Wind Speed 5 mph (NNE)    
Max Wind Speed 9 mph    
Max Gust Speed 16 mph    
Visibility 8 miles    
Events Rain    
Averages and records for this station are not official NWS values.
T = Trace of Precipitation, MM = Missing Value Source: NWS Daily Summary

Daily Weather History Graph

Daily Weather History Graph

Search for Another Location

Airport:

Trip Planner

Search our weather history database for the weather conditions in past years. The results will help you decide how hot, cold, wet, or windy it might be!

Date:

Astronomy

Apr. 19, 2014 Rise Set
Actual Time 6:43 AM EDT 7:57 PM EDT
Civil Twilight 6:16 AM EDT 8:24 PM EDT
Nautical Twilight 5:45 AM EDT 8:56 PM EDT
Astronomical Twilight 5:12 AM EDT 9:29 PM EDT
Moon No Moon Rise 10:04 AM EDT (4/19)
Length of Visible Light 14h 07m
Length of Day
13h 14m
Waning Gibbous, 79% of the Moon is Illuminated
Apr 19
Waning Gibbous
Apr 22
Last Quarter
Apr 29
New
May 6
First Quarter
May 14
Full

Hourly Weather History & Observations

Time (EDT) Temp. Windchill Dew Point Humidity Pressure Visibility Wind Dir Wind Speed Gust Speed Precip Events Conditions
12:15 AM 47.5 °F - 47.5 °F 100% 30.20 in 7.0 mi NNE 3.5 mph - 0.03 in Rain Light Rain
12:35 AM 47.3 °F - 47.3 °F 100% 30.20 in 7.0 mi NNE 5.8 mph - 0.04 in Rain Light Rain
12:55 AM 46.9 °F - 46.9 °F 100% 30.19 in 7.0 mi NE 4.6 mph - 0.07 in Rain Light Rain
1:15 AM 46.6 °F - 46.6 °F 100% 30.18 in 7.0 mi NNE 4.6 mph - 0.01 in Rain Light Rain
1:35 AM 46.6 °F - 46.6 °F 100% 30.19 in 7.0 mi North 3.5 mph - 0.02 in Rain Light Rain
1:55 AM 46.4 °F 45.2 °F 46.4 °F 100% 30.18 in 7.0 mi NNE 3.5 mph - 0.03 in Rain Light Rain
2:15 AM 46.4 °F 45.2 °F 46.4 °F 100% 30.18 in 7.0 mi NE 3.5 mph - N/A Rain Rain
2:35 AM 46.4 °F 44.3 °F 46.4 °F 100% 30.16 in 7.0 mi NNE 4.6 mph - 0.02 in Rain Light Rain
2:55 AM 46.0 °F - 46.0 °F 100% 30.16 in 5.0 mi Calm Calm - 0.04 in Rain Rain
3:15 AM 46.4 °F 44.3 °F 46.4 °F 100% 30.16 in 5.0 mi NE 4.6 mph - 0.02 in Rain Rain
3:35 AM 46.0 °F 43.1 °F 46.0 °F 100% 30.16 in 7.0 mi NNE 5.8 mph - 0.05 in Rain Light Rain
3:55 AM 45.9 °F 42.3 °F 45.9 °F 100% 30.15 in 5.0 mi NNE 6.9 mph - 0.07 in Rain Light Rain
4:15 AM 45.9 °F - 45.9 °F 100% 30.16 in 7.0 mi Calm Calm - 0.02 in Rain Light Rain
4:35 AM 45.7 °F 42.7 °F 45.7 °F 100% 30.15 in 7.0 mi NNE 5.8 mph - 0.04 in Rain Rain
4:55 AM 45.5 °F 42.5 °F 45.5 °F 100% 30.15 in 7.0 mi NE 5.8 mph - 0.06 in Rain Light Rain
5:15 AM 45.5 °F 42.5 °F 45.5 °F 100% 30.15 in 5.0 mi NE 5.8 mph - 0.03 in Rain Rain
5:35 AM 45.5 °F 42.5 °F 45.5 °F 100% 30.14 in 5.0 mi NNE 5.8 mph - 0.08 in Rain Rain
5:55 AM 45.5 °F 41.8 °F 45.5 °F 100% 30.13 in 7.0 mi NNE 6.9 mph - 0.11 in Rain Light Rain
6:15 AM 45.0 °F 40.1 °F 45.0 °F 100% 30.13 in 7.0 mi NE 9.2 mph - 0.03 in Rain Rain
6:35 AM 45.0 °F 40.1 °F 45.0 °F 100% 30.14 in 7.0 mi NNE 9.2 mph - 0.04 in Rain Light Rain
6:55 AM 44.8 °F 41.0 °F 44.8 °F 100% 30.13 in 7.0 mi NNE 6.9 mph - 0.05 in Rain Rain
7:15 AM 44.8 °F 40.4 °F 44.8 °F 100% 30.14 in 7.0 mi NNE 8.1 mph - N/A Rain Rain
7:35 AM 45.0 °F 42.6 °F 45.0 °F 100% 30.15 in 7.0 mi NNE 4.6 mph - 0.01 in   Drizzle
7:55 AM 45.1 °F 41.4 °F 45.1 °F 100% 30.15 in 7.0 mi NNE 6.9 mph - 0.02 in Rain Light Rain
8:15 AM 45.3 °F 41.6 °F 45.3 °F 100% 30.15 in 5.0 mi NNE 6.9 mph - 0.01 in Rain Rain
8:35 AM 45.7 °F 42.0 °F 45.7 °F 100% 30.15 in 5.0 mi NNE 6.9 mph - 0.02 in Rain Rain
8:55 AM 45.9 °F 41.7 °F 45.9 °F 100% 30.16 in 7.0 mi NNE 8.1 mph - 0.02 in   Drizzle
9:15 AM 45.9 °F 42.3 °F 45.9 °F 100% 30.15 in 7.0 mi North 6.9 mph - 0.01 in   Drizzle
9:35 AM 46.4 °F 43.5 °F 46.4 °F 100% 30.16 in 5.0 mi NNE 5.8 mph - 0.01 in Rain Light Rain
9:55 AM 46.4 °F 44.3 °F 46.4 °F 100% 30.16 in 5.0 mi North 4.6 mph - 0.03 in Rain Rain
10:15 AM 46.6 °F - 46.6 °F 100% 30.17 in 7.0 mi Calm Calm - 0.01 in Rain Rain
10:35 AM 46.8 °F - 46.8 °F 100% 30.17 in 7.0 mi NNE 3.5 mph - 0.01 in Rain Rain
10:55 AM 46.9 °F - 46.9 °F 100% 30.18 in 10.0 mi North 3.5 mph - 0.01 in Rain Light Rain
11:15 AM 47.3 °F - 47.3 °F 100% 30.19 in 10.0 mi NNE 4.6 mph - N/A   Light Drizzle
11:35 AM 47.8 °F - 47.8 °F 100% 30.18 in 10.0 mi NNE 5.8 mph - N/A   Light Drizzle
11:55 AM 48.2 °F - 47.5 °F 97% 30.18 in 10.0 mi North 5.8 mph - N/A   Drizzle
12:15 PM 48.9 °F - 48.2 °F 97% 30.17 in 10.0 mi North 5.8 mph - 0.01 in Rain Rain
12:35 PM 49.1 °F - 47.5 °F 94% 30.18 in 7.0 mi NNE 5.8 mph - 0.01 in   Drizzle
12:55 PM 49.3 °F - 47.8 °F 95% 30.18 in 7.0 mi NE 3.5 mph - 0.01 in   Drizzle
1:15 PM 49.3 °F - 47.5 °F 94% 30.18 in 7.0 mi NNE 3.5 mph - 0.01 in Rain Light Rain
1:35 PM 49.3 °F - 48.7 °F 98% 30.17 in 5.0 mi NE 4.6 mph - 0.02 in Rain Light Rain
1:55 PM 50.2 °F - 49.3 °F 97% 30.17 in 7.0 mi NNE 4.6 mph - 0.03 in Rain Rain
2:15 PM 50.4 °F - 50.0 °F 99% 30.17 in 7.0 mi North 4.6 mph - N/A   Drizzle
2:35 PM 51.4 °F - 51.3 °F 99% 30.16 in 7.0 mi NNE 4.6 mph - 0.01 in Rain Light Rain
2:55 PM 51.8 °F - 50.0 °F 94% 30.16 in 10.0 mi North 4.6 mph - 0.01 in   Light Drizzle
3:15 PM 52.5 °F - 49.1 °F 88% 30.16 in 10.0 mi NNE 5.8 mph - N/A   Light Drizzle
3:35 PM 52.9 °F - 46.6 °F 79% 30.16 in 10.0 mi NE 5.8 mph 16.1 mph N/A   Light Drizzle
3:55 PM 53.6 °F - 46.9 °F 78% 30.15 in 10.0 mi NNE 4.6 mph - N/A   Light Drizzle
4:15 PM 54.5 °F - 47.3 °F 77% 30.15 in 10.0 mi NNE 5.8 mph - N/A   Overcast
4:35 PM 55.4 °F - 46.8 °F 73% 30.15 in 10.0 mi NNE 8.1 mph - N/A   Overcast
4:55 PM 55.9 °F - 46.4 °F 70% 30.15 in 10.0 mi NE 4.6 mph - N/A   Overcast
5:15 PM 56.7 °F - 43.5 °F 61% 30.15 in 10.0 mi NE 4.6 mph - N/A   Overcast
5:35 PM 57.2 °F - 43.2 °F 59% 30.16 in 10.0 mi NNE 4.6 mph - N/A   Overcast
5:55 PM 57.2 °F - 43.9 °F 61% 30.16 in 10.0 mi NE 3.5 mph - N/A   Overcast
6:15 PM 57.2 °F - 43.7 °F 61% 30.16 in 10.0 mi NNE 6.9 mph - N/A   Overcast
6:35 PM 57.6 °F - 42.4 °F 57% 30.16 in 10.0 mi NNE 4.6 mph - N/A   Overcast
6:55 PM 57.6 °F - 41.5 °F 55% 30.16 in 10.0 mi NE 6.9 mph - N/A   Overcast
7:15 PM 57.2 °F - 41.9 °F 57% 30.18 in 10.0 mi NNE 3.5 mph - N/A Rain Light Rain
7:35 PM 55.9 °F - 43.5 °F 63% 30.18 in 10.0 mi Calm Calm - N/A Rain Rain
7:55 PM 52.0 °F - 47.7 °F 85% 30.20 in 10.0 mi North 3.5 mph - 0.01 in Rain Light Rain
8:15 PM 51.4 °F - 48.2 °F 89% 30.21 in 10.0 mi Calm Calm - N/A Rain Light Rain
8:35 PM 50.7 °F - 50.0 °F 97% 30.22 in 10.0 mi Calm Calm - 0.01 in Rain Light Rain
8:55 PM 50.5 °F - 50.2 °F 99% 30.22 in 10.0 mi Calm Calm - 0.02 in Rain Light Rain
9:15 PM 51.1 °F - 49.8 °F 95% 30.22 in 10.0 mi North 3.5 mph - N/A Rain Light Rain
9:35 PM 51.1 °F - 49.5 °F 94% 30.22 in 7.0 mi Calm Calm - 0.01 in Rain Light Rain
9:55 PM 50.2 °F - 50.2 °F 100% 30.22 in 7.0 mi North 3.5 mph - 0.02 in Rain Light Rain
10:15 PM 50.5 °F - 49.8 °F 97% 30.22 in 10.0 mi Calm Calm - N/A Rain Light Rain
10:35 PM 50.4 °F - 50.4 °F 100% 30.23 in 7.0 mi Calm Calm - N/A Rain Light Rain
10:55 PM 51.1 °F - 48.6 °F 91% 30.23 in 10.0 mi North 3.5 mph - N/A Rain Rain
11:15 PM 51.1 °F - 48.0 °F 89% 30.22 in 10.0 mi North 3.5 mph - N/A   Overcast
11:35 PM 51.4 °F - 47.7 °F 87% 30.23 in 10.0 mi NNE 4.6 mph - N/A   Overcast
11:55 PM 50.9 °F - 48.2 °F 90% 30.23 in 10.0 mi Calm Calm - N/A   Overcast